AMC-15

Last updated on Sun Oct 26 2025 00:02:54 GMT+0000 (Coordinated Universal Time)

1 28446U 04041A 25298.35878058 -.00000076 00000+0 00000+0 0 9995 2 28446 0.0551 68.2713 0002074 135.6916 214.1696 1.00271791 76941
UTC large
Height (km)
Speed (km/s)
/
Latitude / Longitude
Inclination (degrees)
Orbital Period (minutes)
Azimuth
Elevation
Range (km)
Doppler Factor

Next 0 passes for location: London (51.5072 / 0.1276)

Sorry there are no passes over London.